SQ4LOL-13 Weather Reports


time (UTC)temp
C
wind
direction
speed
KPH
gust
KPH
rain 1hr
cm
rain 24hr
cm
rain mn
cm
humidity
%
barometer
mb
20260506222449 14 90 1.6 1.6 0.00 0.00 0.00 72 989.4
20260506221447 14 90 1.6 1.6 0.00 0.00 0.00 71 989.3
20260506220445 15 90 1.6 1.6 0.00 0.00 0.00 71 989.3
20260506215524 15 0.0 1.6 0.00 0.00 0.00 70 989.3
20260506214501 15 90 1.6 1.6 0.00 0.00 0.00 69 989.3
20260506213500 15 90 1.6 1.6 0.00 0.00 0.00 69 989.3
20260506212438 15 90 1.6 1.6 0.00 0.00 0.00 68 989.5
20260506211435 15 0.0 1.6 0.00 0.00 0.00 68 989.4
20260506210434 16 90 1.6 1.6 0.00 0.00 0.00 67 989.5
20260506205432 16 90 1.6 1.6 0.00 0.00 0.00 66 989.5
20260506204429 16 0.0 1.6 0.00 0.00 0.00 65 989.4
20260506203427 17 0.0 1.6 0.00 0.00 0.00 63 989.5
20260506202424 17 0.0 1.6 0.00 0.00 0.00 62 989.5
20260506201424 17 0.0 1.6 0.00 0.00 0.00 61 989.3
20260506200421 18 0.0 1.6 0.00 0.00 0.00 60 989.4
20260506195419 18 0.0 1.6 0.00 0.00 0.00 59 989.3
20260506194419 18 90 1.6 1.6 0.00 0.00 0.00 58 989.2
20260506193455 19 90 1.6 1.6 0.00 0.00 0.00 57 989.2
20260506192413 20 90 1.6 1.6 0.00 0.00 0.00 55 989.2
20260506191411 20 90 1.6 1.6 0.00 0.00 0.00 54 989.2
20260506190409 20 90 1.6 1.6 0.00 0.00 0.00 53 989.0
20260506185407 21 90 1.6 1.6 0.00 0.00 0.00 52 988.9
20260506184426 21 90 1.6 1.6 0.00 0.00 0.00 51 988.7
20260506183423 22 135 1.6 1.6 0.00 0.00 0.00 50 988.6
20260506182402 22 90 1.6 1.6 0.00 0.00 0.00 49 988.4
20260506181359 22 122 1.6 1.6 0.00 0.00 0.00 48 988.2
20260506180357 23 0.0 1.6 0.00 0.00 0.00 47 988.3
20260506175355 23 186 1.6 1.6 0.00 0.00 0.00 46 988.2
20260506174413 23 230 1.6 6.4 0.00 0.00 0.00 45 988.1
20260506173351 23 270 1.6 8.0 0.00 0.00 0.00 45 987.9
20260506172349 24 270 3.2 16.1 0.00 0.00 0.00 44 987.8
20260506171347 24 245 1.6 9.7 0.00 0.00 0.00 44 987.6
20260506170345 24 239 1.6 6.4 0.00 0.00 0.00 43 987.6
20260506165343 25 225 1.6 6.4 0.00 0.00 0.00 42 987.6
20260506164402 25 233 1.6 4.8 0.00 0.00 0.00 42 987.5
20260506163339 25 229 1.6 6.4 0.00 0.00 0.00 41 987.4
20260506162337 25 232 1.6 11.3 0.00 0.00 0.00 41 987.4
20260506161334 25 206 1.6 3.2 0.00 0.00 0.00 40 987.4
20260506160353 25 220 1.6 6.4 0.00 0.00 0.00 39 987.4
20260506155332 26 203 1.6 4.8 0.00 0.00 0.00 38 987.4
20260506154329 26 216 1.6 6.4 0.00 0.00 0.00 38 987.4
20260506153347 26 207 1.6 6.4 0.00 0.00 0.00 39 987.2
20260506152324 26 204 1.6 4.8 0.00 0.00 0.00 38 987.3
20260506151323 26 213 1.6 3.2 0.00 0.00 0.00 37 987.2
20260506150341 26 198 1.6 3.2 0.00 0.00 0.00 36 987.3
20260506145318 27 202 1.6 6.4 0.00 0.00 0.00 35 987.3
20260506144317 27 200 1.6 6.4 0.00 0.00 0.00 34 987.2
20260506143316 27 207 1.6 6.4 0.00 0.00 0.00 34 987.2
20260506142333 28 216 1.6 8.0 0.00 0.00 0.00 34 987.1
20260506141311 28 203 1.6 6.4 0.00 0.00 0.00 34 987.1
20260506140310 28 200 3.2 6.4 0.00 0.00 0.00 33 987.2
20260506135307 28 180 3.2 11.3 0.00 0.00 0.00 33 987.1
20260506134306 28 176 6.4 16.1 0.00 0.00 0.00 32 987.2
20260506133303 29 181 4.8 14.5 0.00 0.00 0.00 31 987.2
20260506132301 30 177 6.4 22.5 0.00 0.00 0.00 31 987.2
20260506131319 29 176 9.7 24.1 0.00 0.00 0.00 31 987.2
20260506130327 29 180 6.4 14.5 0.00 0.00 0.00 31 987.1
20260506125255 29 175 6.4 17.7 0.00 0.00 0.00 32 987.2
20260506124253 29 183 4.8 11.3 0.00 0.00 0.00 34 987.1
20260506123340 29 183 4.8 11.3 0.00 0.00 0.00 34 987.1
20260506122249 28 184 3.2 8.0 0.00 0.00 0.00 33 987.1
20260506121248 28 174 4.8 17.7 0.00 0.00 0.00 34 987.3
20260506120245 28 178 6.4 19.3 0.00 0.00 0.00 34 987.3
20260506115244 28 184 3.2 9.7 0.00 0.00 0.00 34 987.4
20260506114241 27 170 4.8 16.1 0.00 0.00 0.00 34 987.6
20260506113239 27 181 3.2 6.4 0.00 0.00 0.00 35 987.8
20260506112238 27 168 4.8 11.3 0.00 0.00 0.00 35 987.8
20260506111236 26 176 4.8 14.5 0.00 0.00 0.00 36 988.0
20260506110233 26 174 4.8 11.3 0.00 0.00 0.00 36 988.0
20260506105312 26 170 6.4 17.7 0.00 0.00 0.00 36 988.0
20260506104228 26 167 4.8 16.1 0.00 0.00 0.00 37 988.0
20260506103227 26 180 6.4 14.5 0.00 0.00 0.00 37 988.1
20260506102225 25 169 4.8 11.3 0.00 0.00 0.00 38 988.1
20260506101223 25 183 4.8 8.0 0.00 0.00 0.00 39 988.3
20260506100222 25 173 4.8 16.1 0.00 0.00 0.00 40 988.5
20260506095219 25 170 6.4 16.1 0.00 0.00 0.00 40 988.5
20260506094217 24 174 4.8 14.5 0.00 0.00 0.00 42 988.5
20260506093216 23 171 4.8 12.9 0.00 0.00 0.00 44 988.6
20260506092213 23 171 1.6 6.4 0.00 0.00 0.00 45 988.8
20260506091212 23 167 4.8 11.3 0.00 0.00 0.00 46 989.1
20260506090230 22 178 3.2 8.0 0.00 0.00 0.00 48 988.8
20260506085207 22 147 4.8 9.7 0.00 0.00 0.00 51 988.9
20260506084206 21 103 3.2 11.3 0.00 0.00 0.00 54 988.8
20260506083203 20 117 1.6 6.4 0.00 0.00 0.00 56 988.8
20260506082222 20 117 1.6 6.4 0.00 0.00 0.00 57 988.9
20260506081159 18 90 1.6 6.4 0.00 0.00 0.00 62 989.0
20260506080158 18 135 1.6 6.4 0.00 0.00 0.00 64 989.2
20260506073151 17 90 1.6 6.4 0.00 0.00 0.00 71 989.5
20260506072149 16 90 1.6 6.4 0.00 0.00 0.00 73 989.5
20260506071148 16 90 3.2 6.4 0.00 0.00 0.00 74 989.5
20260506070205 15 69 4.8 9.7 0.00 0.00 0.00 76 989.4
20260506062138 13 67 3.2 6.4 0.00 0.00 0.00 82 989.8
20260506061135 13 80 3.2 6.4 0.00 0.00 0.00 83 989.8
20260506060134 13 80 3.2 6.4 0.00 0.00 0.00 83 989.8
20260506051124 12 90 1.6 6.4 0.00 0.00 0.00 88 990.1
20260506050122 12 90 1.6 4.8 0.00 0.00 0.00 88 990.1
20260506045120 12 90 1.6 6.4 0.00 0.00 0.00 89 990.0
20260506044117 12 56 1.6 6.4 0.00 0.00 0.00 88 989.9
20260506043115 12 69 3.2 6.4 0.00 0.00 0.00 88 990.0
20260506042113 12 60 3.2 8.0 0.00 0.00 0.00 88 989.8
20260506041111 12 50 3.2 9.7 0.00 0.00 0.00 88 989.9
20260506040130 12 53 1.6 6.4 0.00 0.00 0.00 88 989.9
20260506035107 12 43 3.2 8.0 0.00 0.00 0.00 88 989.8
20260506034125 12 50 3.2 6.4 0.00 0.00 0.00 88 989.8
20260506033144 12 51 4.8 9.7 0.00 0.00 0.00 87 989.7
20260506032101 12 62 3.2 6.4 0.00 0.00 0.00 87 989.8
20260506031059 12 41 3.2 6.4 0.00 0.00 0.00 87 989.8
20260506030057 12 40 1.6 6.4 0.00 0.00 0.00 87 989.9
20260506025055 12 40 1.6 4.8 0.00 0.00 0.00 86 989.9
20260506024114 12 65 1.6 6.4 0.00 0.00 0.00 86 989.9
20260506023051 12 62 1.6 6.4 0.00 0.00 0.00 85 989.9
20260506022109 12 46 3.2 6.4 0.00 0.00 0.00 84 989.6
20260506021048 12 32 1.6 4.8 0.00 0.00 0.00 84 989.5
20260506020045 12 40 1.6 6.4 0.00 0.00 0.00 84 989.4
20260506015044 12 42 1.6 4.8 0.00 0.00 0.00 84 989.5
20260506014101 12 42 1.6 6.4 0.00 0.00 0.00 84 989.4
20260506013039 13 59 1.6 6.4 0.00 0.00 0.00 84 989.4
20260506012057 13 71 1.6 6.4 0.00 0.00 0.00 83 989.4
20260506011035 13 52 3.2 6.4 0.00 0.00 0.00 83 989.4
20260506010033 13 82 3.2 8.0 0.00 0.00 0.00 83 989.3
20260506005031 13 67 1.6 8.0 0.00 0.00 0.00 83 989.3
20260506004030 13 80 3.2 6.4 0.00 0.00 0.00 82 989.4
20260506003027 13 70 1.6 6.4 0.00 0.00 0.00 82 989.3
20260506002025 13 73 1.6 6.4 0.00 0.00 0.00 82 989.4
20260506001024 13 56 1.6 6.4 0.00 0.00 0.00 82 989.4
20260506000021 13 70 3.2 8.0 0.00 0.00 0.00 81 989.4
20260505235019 13 90 1.6 6.4 0.00 0.00 0.00 81 989.4
20260505234037 13 90 1.6 4.8 0.00 0.00 0.00 80 989.5
20260505233015 14 65 1.6 6.4 0.00 0.00 0.00 79 989.4
20260505232012 14 118 1.6 6.4 0.00 0.00 0.00 79 989.7
20260505231012 14 67 3.2 6.4 0.00 0.00 0.00 78 989.6
20260505230031 15 66 1.6 6.4 0.00 0.00 0.00 77 989.7
20260505225027 15 60 1.6 3.2 0.00 0.00 0.00 77 989.6
20260505224005 15 60 1.6 6.4 0.00 0.00 0.00 76 989.6
20260505223003 15 60 1.6 6.4 0.00 0.00 0.00 75 989.6